,,PressureMeas_1m,,PRMeasQMR101_1,,RHStat155_1m_1,,SRMeasQMS101R_1m,,TAStat155_1m_1,,GenWind_1,,GenWind_1,
2019-08-07, 00:00:06,VALID,917.931,VALID,0.0,VALID,96.283,VALID,0.035,VALID,20.567,VALID,3.0,VALID,0.0,
2019-08-07, 00:01:06,VALID,917.908,VALID,0.0,VALID,96.454,VALID,0.034,VALID,20.526,VALID,19.0,VALID,0.0,
2019-08-07, 00:02:06,VALID,917.912,VALID,0.0,VALID,96.456,VALID,0.024,VALID,20.466,VALID,20.0,VALID,0.0,
2019-08-07, 00:03:06,VALID,917.9,VALID,0.0,VALID,96.572,VALID,0.01,VALID,20.445,VALID,17.0,VALID,0.0,
2019-08-07, 00:04:06,VALID,917.896,VALID,0.0,VALID,96.721,VALID,0.027,VALID,20.434,VALID,16.0,VALID,0.0,
2019-08-07, 00:05:06,VALID,917.891,VALID,0.0,VALID,96.846,VALID,0.036,VALID,20.43,VALID,22.0,VALID,0.0,
2019-08-07, 00:06:06,VALID,917.865,VALID,0.0,VALID,96.802,VALID,0.032,VALID,20.401,VALID,20.0,VALID,0.0,
2019-08-07, 00:07:06,VALID,917.858,VALID,0.0,VALID,97.007,VALID,0.004,VALID,20.396,VALID,9.0,VALID,0.0,
2019-08-07, 00:08:06,VALID,917.853,VALID,0.0,VALID,96.978,VALID,0.006,VALID,20.356,VALID,360.0,VALID,0.0,
2019-08-07, 00:09:06,VALID,917.855,VALID,0.0,VALID,96.93,VALID,0.004,VALID,20.333,VALID,352.0,VALID,0.0,
2019-08-07, 00:10:06,VALID,917.839,VALID,0.0,VALID,97.062,VALID,0.004,VALID,20.324,VALID,352.0,VALID,0.0,
2019-08-07, 00:11:06,VALID,917.857,VALID,0.0,VALID,97.129,VALID,0.008,VALID,20.312,VALID,8.0,VALID,0.0,
2019-08-07, 00:12:06,VALID,917.873,VALID,0.0,VALID,97.22,VALID,0.024,VALID,20.315,VALID,355.0,VALID,0.0,
2019-08-07, 00:13:06,VALID,917.868,VALID,0.0,VALID,97.22,VALID,0.024,VALID,20.317,VALID,359.0,VALID,0.0,
2019-08-07, 00:14:06,VALID,917.86,VALID,0.0,VALID,97.098,VALID,0.029,VALID,20.301,VALID,5.0,VALID,0.0,
2019-08-07, 00:15:06,VALID,917.812,VALID,0.0,VALID,97.201,VALID,0.018,VALID,20.311,VALID,351.0,VALID,0.0,
2019-08-07, 00:16:06,VALID,917.818,VALID,0.0,VALID,97.235,VALID,0.029,VALID,20.324,VALID,4.0,VALID,0.0,
2019-08-07, 00:17:06,VALID,917.811,VALID,0.0,VALID,97.155,VALID,0.032,VALID,20.301,VALID,352.0,VALID,0.0,
2019-08-07, 00:18:06,VALID,917.812,VALID,0.0,VALID,97.144,VALID,0.02,VALID,20.304,VALID,331.0,VALID,0.0,
2019-08-07, 00:19:06,VALID,917.825,VALID,0.0,VALID,97.103,VALID,-0.018,VALID,20.311,VALID,320.0,VALID,0.0,
2019-08-07, 00:20:06,VALID,917.844,VALID,0.0,VALID,97.044,VALID,-0.015,VALID,20.306,VALID,309.0,VALID,0.0,
2019-08-07, 00:21:06,VALID,917.839,VALID,0.0,VALID,96.956,VALID,-0.016,VALID,20.292,VALID,306.0,VALID,0.0,
2019-08-07, 00:22:06,VALID,917.819,VALID,0.0,VALID,97.007,VALID,-0.016,VALID,20.306,VALID,306.0,VALID,0.0,
2019-08-07, 00:23:06,VALID,917.838,VALID,0.0,VALID,96.972,VALID,-0.016,VALID,20.327,VALID,311.0,VALID,0.0,
2019-08-07, 00:24:06,VALID,917.84,VALID,0.0,VALID,97.092,VALID,-0.02,VALID,20.365,VALID,343.0,VALID,0.0,
2019-08-07, 00:25:06,VALID,917.847,VALID,0.0,VALID,97.027,VALID,-0.025,VALID,20.358,VALID,357.0,VALID,0.0,
2019-08-07, 00:26:06,VALID,917.836,VALID,0.0,VALID,96.993,VALID,-0.012,VALID,20.363,VALID,15.0,VALID,0.0,
2019-08-07, 00:27:06,VALID,917.833,VALID,0.0,VALID,96.991,VALID,-0.006,VALID,20.375,VALID,21.0,VALID,0.0,
2019-08-07, 00:28:06,VALID,917.8,VALID,0.0,VALID,96.942,VALID,0.002,VALID,20.368,VALID,2.0,VALID,0.0,
2019-08-07, 00:29:06,VALID,917.803,VALID,0.0,VALID,97.133,VALID,-0.002,VALID,20.379,VALID,31.0,VALID,0.0,
2019-08-07, 00:30:06,VALID,917.778,VALID,0.0,VALID,97.012,VALID,0.004,VALID,20.35,VALID,17.0,VALID,0.0,
2019-08-07, 00:31:06,VALID,917.773,VALID,0.0,VALID,97.03,VALID,-0.012,VALID,20.349,VALID,7.0,VALID,0.0,
2019-08-07, 00:32:06,VALID,917.762,VALID,0.0,VALID,97.098,VALID,-0.014,VALID,20.342,VALID,6.0,VALID,0.0,
2019-08-07, 00:33:06,VALID,917.763,VALID,0.0,VALID,97.186,VALID,-0.003,VALID,20.347,VALID,17.0,VALID,0.0,
2019-08-07, 00:34:06,VALID,917.795,VALID,0.0,VALID,97.164,VALID,-0.029,VALID,20.357,VALID,4.0,VALID,0.0,
2019-08-07, 00:35:06,VALID,917.783,VALID,0.0,VALID,97.122,VALID,-0.021,VALID,20.348,VALID,17.0,VALID,0.0,
2019-08-07, 00:36:06,VALID,917.787,VALID,0.0,VALID,97.225,VALID,-0.033,VALID,20.348,VALID,25.0,VALID,0.0,
2019-08-07, 00:37:06,VALID,917.776,VALID,0.0,VALID,97.207,VALID,-0.04,VALID,20.319,VALID,19.0,VALID,0.0,
2019-08-07, 00:38:06,VALID,917.766,VALID,0.0,VALID,97.282,VALID,-0.025,VALID,20.299,VALID,27.0,VALID,0.0,
2019-08-07, 00:39:06,VALID,917.756,VALID,0.0,VALID,97.348,VALID,-0.037,VALID,20.296,VALID,26.0,VALID,0.0,
2019-08-07, 00:40:06,VALID,917.754,VALID,0.0,VALID,97.531,VALID,-0.045,VALID,20.325,VALID,7.0,VALID,0.0,
2019-08-07, 00:41:06,VALID,917.753,VALID,0.0,VALID,97.588,VALID,-0.033,VALID,20.354,VALID,16.0,VALID,0.0,
2019-08-07, 00:42:06,VALID,917.762,VALID,0.0,VALID,97.471,VALID,-0.039,VALID,20.364,VALID,346.0,VALID,0.0,
2019-08-07, 00:43:06,VALID,917.748,VALID,0.0,VALID,97.186,VALID,-0.039,VALID,20.344,VALID,338.0,VALID,0.0,
2019-08-07, 00:44:06,VALID,917.758,VALID,0.0,VALID,97.141,VALID,-0.024,VALID,20.369,VALID,340.0,VALID,0.0,
2019-08-07, 00:45:06,VALID,917.74,VALID,0.0,VALID,96.903,VALID,-0.032,VALID,20.36,VALID,19.0,VALID,0.0,
2019-08-07, 00:46:06,VALID,917.745,VALID,0.0,VALID,96.968,VALID,-0.022,VALID,20.391,VALID,19.0,VALID,0.0,
2019-08-07, 00:47:06,VALID,917.737,VALID,0.0,VALID,96.947,VALID,-0.022,VALID,20.414,VALID,18.0,VALID,0.0,
2019-08-07, 00:48:06,VALID,917.722,VALID,0.0,VALID,96.888,VALID,-0.021,VALID,20.38,VALID,23.0,VALID,0.0,
2019-08-07, 00:49:06,VALID,917.719,VALID,0.0,VALID,96.999,VALID,-0.032,VALID,20.379,VALID,27.0,VALID,0.0,
2019-08-07, 00:50:06,VALID,917.726,VALID,0.0,VALID,97.082,VALID,-0.035,VALID,20.418,VALID,27.0,VALID,0.0,
2019-08-07, 00:51:06,VALID,917.721,VALID,0.0,VALID,97.0,VALID,-0.041,VALID,20.442,VALID,27.0,VALID,0.0,
2019-08-07, 00:52:06,VALID,917.706,VALID,0.0,VALID,96.927,VALID,-0.05,VALID,20.463,VALID,27.0,VALID,0.0,
2019-08-07, 00:53:06,VALID,917.71,VALID,0.0,VALID,96.833,VALID,-0.041,VALID,20.473,VALID,27.0,VALID,0.0,
2019-08-07, 00:54:06,VALID,917.696,VALID,0.0,VALID,96.657,VALID,-0.028,VALID,20.482,VALID,27.0,VALID,0.0,
2019-08-07, 00:55:06,VALID,917.671,VALID,0.0,VALID,96.573,VALID,-0.035,VALID,20.503,VALID,27.0,VALID,0.0,
2019-08-07, 00:56:06,VALID,917.651,VALID,0.0,VALID,96.487,VALID,-0.025,VALID,20.511,VALID,27.0,VALID,0.0,
2019-08-07, 00:57:06,VALID,917.63,VALID,0.0,VALID,96.243,VALID,-0.024,VALID,20.474,VALID,27.0,VALID,0.0,
2019-08-07, 00:58:06,VALID,917.606,VALID,0.0,VALID,96.085,VALID,-0.023,VALID,20.433,VALID,27.0,VALID,0.0,
2019-08-07, 00:59:06,VALID,917.592,VALID,0.0,VALID,96.189,VALID,-0.025,VALID,20.406,VALID,27.0,VALID,0.0,
2019-08-07, 01:00:06,VALID,917.583,VALID,0.0,VALID,96.135,VALID,-0.029,VALID,20.39,VALID,27.0,VALID,0.0,
2019-08-07, 01:01:06,VALID,917.556,VALID,0.0,VALID,96.159,VALID,-0.038,VALID,20.406,VALID,27.0,VALID,0.0,
2019-08-07, 01:02:06,VALID,917.543,VALID,0.0,VALID,96.322,VALID,-0.031,VALID,20.435,VALID,73.0,VALID,0.0,
2019-08-07, 01:03:06,VALID,917.542,VALID,0.0,VALID,96.422,VALID,-0.028,VALID,20.418,VALID,83.0,VALID,0.0,
2019-08-07, 01:04:06,VALID,917.546,VALID,0.0,VALID,96.564,VALID,0.007,VALID,20.399,VALID,83.0,VALID,0.0,
2019-08-07, 01:05:06,VALID,917.521,VALID,0.0,VALID,96.414,VALID,0.006,VALID,20.35,VALID,83.0,VALID,0.0,
2019-08-07, 01:06:06,VALID,917.494,VALID,0.0,VALID,96.602,VALID,-0.004,VALID,20.366,VALID,83.0,VALID,0.0,
2019-08-07, 01:07:06,VALID,917.483,VALID,0.0,VALID,96.678,VALID,0.001,VALID,20.398,VALID,83.0,VALID,0.0,
2019-08-07, 01:08:06,VALID,917.463,VALID,0.0,VALID,96.649,VALID,0.015,VALID,20.432,VALID,50.0,VALID,0.0,
2019-08-07, 01:09:06,VALID,917.453,VALID,0.0,VALID,96.289,VALID,0.017,VALID,20.436,VALID,27.0,VALID,0.0,
2019-08-07, 01:10:06,VALID,917.461,VALID,0.0,VALID,95.916,VALID,0.007,VALID,20.422,VALID,26.0,VALID,0.0,
2019-08-07, 01:11:06,VALID,917.447,VALID,0.0,VALID,95.84,VALID,0.003,VALID,20.402,VALID,5.0,VALID,0.0,
2019-08-07, 01:12:06,VALID,917.431,VALID,0.0,VALID,95.987,VALID,0.002,VALID,20.345,VALID,3.0,VALID,0.0,
2019-08-07, 01:13:06,VALID,917.417,VALID,0.0,VALID,96.375,VALID,0.0,VALID,20.321,VALID,13.0,VALID,0.0,
2019-08-07, 01:14:06,VALID,917.383,VALID,0.0,VALID,96.749,VALID,0.021,VALID,20.307,VALID,19.0,VALID,0.0,
2019-08-07, 01:15:06,VALID,917.356,VALID,0.0,VALID,96.675,VALID,0.007,VALID,20.248,VALID,20.0,VALID,0.0,
2019-08-07, 01:16:06,VALID,917.363,VALID,0.0,VALID,96.739,VALID,-0.009,VALID,20.21,VALID,20.0,VALID,0.0,
2019-08-07, 01:17:06,VALID,917.342,VALID,0.0,VALID,96.969,VALID,0.018,VALID,20.191,VALID,22.0,VALID,0.0,
2019-08-07, 01:18:06,VALID,917.338,VALID,0.0,VALID,97.221,VALID,0.012,VALID,20.213,VALID,35.0,VALID,0.0,
2019-08-07, 01:19:06,VALID,917.353,VALID,0.0,VALID,97.211,VALID,0.009,VALID,20.203,VALID,38.0,VALID,0.0,
2019-08-07, 01:20:06,VALID,917.345,VALID,0.0,VALID,97.17,VALID,-0.002,VALID,20.189,VALID,30.0,VALID,0.0,
2019-08-07, 01:21:06,VALID,917.334,VALID,0.0,VALID,97.202,VALID,-0.021,VALID,20.177,VALID,30.0,VALID,0.0,
2019-08-07, 01:22:06,VALID,917.302,VALID,0.0,VALID,97.25,VALID,-0.013,VALID,20.173,VALID,30.0,VALID,0.0,
2019-08-07, 01:23:06,VALID,917.272,VALID,0.0,VALID,97.24,VALID,-0.01,VALID,20.177,VALID,30.0,VALID,0.0,
2019-08-07, 01:24:06,VALID,917.256,VALID,0.0,VALID,97.196,VALID,-0.024,VALID,20.175,VALID,30.0,VALID,0.0,
2019-08-07, 01:25:06,VALID,917.243,VALID,0.0,VALID,97.146,VALID,-0.012,VALID,20.179,VALID,46.0,VALID,0.0,
2019-08-07, 01:26:06,VALID,917.218,VALID,0.0,VALID,97.073,VALID,-0.014,VALID,20.167,VALID,58.0,VALID,0.0,
2019-08-07, 01:27:06,VALID,917.224,VALID,0.0,VALID,97.178,VALID,-0.017,VALID,20.183,VALID,58.0,VALID,0.0,
2019-08-07, 01:28:06,VALID,917.213,VALID,0.0,VALID,97.191,VALID,-0.003,VALID,20.215,VALID,40.0,VALID,0.0,
2019-08-07, 01:29:06,VALID,917.22,VALID,0.0,VALID,97.098,VALID,-0.021,VALID,20.233,VALID,26.0,VALID,0.0,
2019-08-07, 01:30:06,VALID,917.219,VALID,0.0,VALID,97.031,VALID,-0.002,VALID,20.243,VALID,26.0,VALID,0.0,
2019-08-07, 01:31:06,VALID,917.224,VALID,0.0,VALID,96.865,VALID,-0.031,VALID,20.238,VALID,26.0,VALID,0.0,
2019-08-07, 01:32:06,VALID,917.204,VALID,0.0,VALID,96.818,VALID,-0.017,VALID,20.239,VALID,26.0,VALID,0.0,
2019-08-07, 01:33:06,VALID,917.227,VALID,0.0,VALID,96.744,VALID,-0.008,VALID,20.223,VALID,26.0,VALID,0.0,
2019-08-07, 01:34:06,VALID,917.216,VALID,0.0,VALID,96.758,VALID,-0.012,VALID,20.222,VALID,26.0,VALID,0.0,
2019-08-07, 01:35:06,VALID,917.221,VALID,0.0,VALID,96.794,VALID,-0.009,VALID,20.219,VALID,48.0,VALID,0.0,
2019-08-07, 01:36:06,VALID,917.205,VALID,0.0,VALID,96.716,VALID,-0.021,VALID,20.194,VALID,70.0,VALID,0.0,
2019-08-07, 01:37:06,VALID,917.183,VALID,0.0,VALID,96.607,VALID,-0.021,VALID,20.149,VALID,91.0,VALID,0.0,
2019-08-07, 01:38:06,VALID,917.172,VALID,0.0,VALID,96.767,VALID,-0.035,VALID,20.139,VALID,100.0,VALID,0.0,
2019-08-07, 01:39:06,VALID,917.162,VALID,0.0,VALID,96.936,VALID,-0.019,VALID,20.126,VALID,101.0,VALID,0.0,
2019-08-07, 01:40:06,VALID,917.175,VALID,0.0,VALID,97.021,VALID,-0.019,VALID,20.119,VALID,114.0,VALID,0.0,
2019-08-07, 01:41:06,VALID,917.166,VALID,0.0,VALID,97.059,VALID,-0.014,VALID,20.118,VALID,124.0,VALID,0.0,
2019-08-07, 01:42:06,VALID,917.18,VALID,0.0,VALID,97.104,VALID,-0.023,VALID,20.135,VALID,123.0,VALID,0.0,
2019-08-07, 01:43:06,VALID,917.186,VALID,0.0,VALID,97.016,VALID,-0.011,VALID,20.158,VALID,123.0,VALID,0.0,
2019-08-07, 01:44:06,VALID,917.173,VALID,0.0,VALID,96.917,VALID,-0.015,VALID,20.172,VALID,121.0,VALID,0.0,
2019-08-07, 01:45:06,VALID,917.18,VALID,0.0,VALID,96.917,VALID,-0.012,VALID,20.175,VALID,120.0,VALID,0.0,
2019-08-07, 01:46:06,VALID,917.168,VALID,0.0,VALID,96.961,VALID,-0.014,VALID,20.187,VALID,120.0,VALID,0.0,
2019-08-07, 01:47:06,VALID,917.134,VALID,0.0,VALID,96.992,VALID,-0.025,VALID,20.197,VALID,120.0,VALID,0.0,
2019-08-07, 01:48:06,VALID,917.146,VALID,0.0,VALID,96.98,VALID,-0.018,VALID,20.213,VALID,120.0,VALID,0.0,
2019-08-07, 01:49:06,VALID,917.104,VALID,0.0,VALID,96.979,VALID,-0.008,VALID,20.233,VALID,120.0,VALID,0.0,
2019-08-07, 01:50:06,VALID,917.091,VALID,0.0,VALID,96.894,VALID,-0.006,VALID,20.228,VALID,119.0,VALID,0.0,
2019-08-07, 01:51:06,VALID,917.079,VALID,0.0,VALID,96.868,VALID,-0.027,VALID,20.197,VALID,119.0,VALID,0.0,
2019-08-07, 01:52:06,VALID,917.056,VALID,0.0,VALID,96.948,VALID,-0.011,VALID,20.174,VALID,119.0,VALID,0.0,
2019-08-07, 01:53:06,VALID,917.054,VALID,0.0,VALID,97.062,VALID,-0.019,VALID,20.175,VALID,119.0,VALID,0.0,
2019-08-07, 01:54:06,VALID,917.057,VALID,0.0,VALID,97.116,VALID,-0.024,VALID,20.157,VALID,124.0,VALID,0.0,
2019-08-07, 01:55:06,VALID,917.039,VALID,0.0,VALID,97.232,VALID,-0.009,VALID,20.136,VALID,127.0,VALID,0.0,
2019-08-07, 01:56:06,VALID,917.049,VALID,0.0,VALID,97.363,VALID,-0.025,VALID,20.114,VALID,127.0,VALID,0.0,
2019-08-07, 01:57:06,VALID,917.051,VALID,0.0,VALID,97.439,VALID,-0.017,VALID,20.098,VALID,127.0,VALID,0.0,
2019-08-07, 01:58:06,VALID,917.058,VALID,0.0,VALID,97.417,VALID,-0.009,VALID,20.091,VALID,127.0,VALID,0.0,
2019-08-07, 01:59:06,VALID,917.012,VALID,0.0,VALID,97.372,VALID,0.022,VALID,20.067,VALID,127.0,VALID,0.0,
2019-08-07, 02:00:06,VALID,917.0,VALID,0.0,VALID,97.435,VALID,-0.0,VALID,20.049,VALID,127.0,VALID,0.0,
2019-08-07, 02:01:06,VALID,917.01,VALID,0.0,VALID,97.512,VALID,0.02,VALID,20.03,VALID,127.0,VALID,0.0,
2019-08-07, 02:02:06,VALID,917.011,VALID,0.0,VALID,97.624,VALID,0.019,VALID,20.017,VALID,127.0,VALID,0.0,
2019-08-07, 02:03:06,VALID,917.018,VALID,0.0,VALID,97.661,VALID,0.008,VALID,20.006,VALID,127.0,VALID,0.0,
2019-08-07, 02:04:06,VALID,917.006,VALID,0.0,VALID,97.719,VALID,-0.019,VALID,19.995,VALID,127.0,VALID,0.0,
2019-08-07, 02:05:06,VALID,917.013,VALID,0.0,VALID,97.795,VALID,-0.04,VALID,20.0,VALID,127.0,VALID,0.0,
2019-08-07, 02:06:06,VALID,917.012,VALID,0.0,VALID,97.826,VALID,-0.022,VALID,19.993,VALID,127.0,VALID,0.0,
2019-08-07, 02:07:06,VALID,917.015,VALID,0.0,VALID,97.905,VALID,-0.019,VALID,20.0,INVALID,360.0,VALID,0.0,
2019-08-07, 02:08:06,VALID,916.978,VALID,0.0,VALID,97.93,VALID,-0.024,VALID,19.998,INVALID,360.0,VALID,0.0,
2019-08-07, 02:09:06,VALID,916.962,VALID,0.0,VALID,97.929,VALID,-0.016,VALID,19.99,INVALID,360.0,VALID,0.0,
2019-08-07, 02:10:06,VALID,916.954,VALID,0.0,VALID,97.954,VALID,-0.024,VALID,19.981,INVALID,360.0,VALID,0.0,
2019-08-07, 02:11:06,VALID,916.934,VALID,0.0,VALID,98.008,VALID,-0.028,VALID,19.969,INVALID,360.0,VALID,0.0,
2019-08-07, 02:12:06,VALID,916.929,VALID,0.0,VALID,98.051,VALID,-0.027,VALID,19.951,INVALID,360.0,VALID,0.0,
2019-08-07, 02:13:06,VALID,916.921,VALID,0.0,VALID,98.081,VALID,-0.026,VALID,19.937,INVALID,360.0,VALID,0.0,
2019-08-07, 02:14:06,VALID,916.922,VALID,0.0,VALID,97.914,VALID,-0.048,VALID,19.854,INVALID,360.0,VALID,0.0,
2019-08-07, 02:15:06,VALID,916.896,VALID,0.0,VALID,97.609,VALID,-0.024,VALID,19.774,INVALID,360.0,VALID,0.0,
2019-08-07, 02:16:06,VALID,916.876,VALID,0.0,VALID,97.462,VALID,-0.048,VALID,19.719,INVALID,360.0,VALID,0.0,
2019-08-07, 02:17:06,VALID,916.866,VALID,0.0,VALID,97.409,VALID,-0.043,VALID,19.673,INVALID,360.0,VALID,0.0,
2019-08-07, 02:18:06,VALID,916.87,VALID,0.0,VALID,97.458,VALID,-0.022,VALID,19.643,INVALID,360.0,VALID,0.0,
2019-08-07, 02:19:06,VALID,916.84,VALID,0.0,VALID,97.565,VALID,0.003,VALID,19.633,INVALID,360.0,VALID,0.0,
2019-08-07, 02:20:06,VALID,916.817,VALID,0.0,VALID,97.652,VALID,0.011,VALID,19.624,INVALID,360.0,VALID,0.0,
2019-08-07, 02:21:06,VALID,916.821,VALID,0.0,VALID,97.76,VALID,0.002,VALID,19.631,INVALID,360.0,VALID,0.0,
2019-08-07, 02:22:06,VALID,916.796,VALID,0.0,VALID,97.956,VALID,0.01,VALID,19.641,INVALID,360.0,VALID,0.0,
2019-08-07, 02:23:06,VALID,916.788,VALID,0.0,VALID,97.985,VALID,0.024,VALID,19.619,INVALID,360.0,VALID,0.0,
2019-08-07, 02:24:06,VALID,916.808,VALID,0.0,VALID,98.081,VALID,-0.005,VALID,19.598,INVALID,360.0,VALID,0.0,
2019-08-07, 02:25:06,VALID,916.82,VALID,0.0,VALID,98.188,VALID,-0.002,VALID,19.593,INVALID,360.0,VALID,0.0,
2019-08-07, 02:26:06,VALID,916.826,VALID,0.0,VALID,98.282,VALID,0.02,VALID,19.583,INVALID,360.0,VALID,0.0,
2019-08-07, 02:27:06,VALID,916.837,VALID,0.0,VALID,98.393,VALID,0.012,VALID,19.585,INVALID,360.0,VALID,0.0,
2019-08-07, 02:28:06,VALID,916.84,VALID,0.0,VALID,98.42,VALID,-0.001,VALID,19.556,INVALID,360.0,VALID,0.0,
2019-08-07, 02:29:06,VALID,916.83,VALID,0.0,VALID,98.447,VALID,0.009,VALID,19.553,INVALID,360.0,VALID,0.0,
2019-08-07, 02:30:06,VALID,916.816,VALID,0.0,VALID,98.503,VALID,0.018,VALID,19.552,INVALID,360.0,VALID,0.0,
2019-08-07, 02:31:06,VALID,916.783,VALID,0.0,VALID,98.487,VALID,0.009,VALID,19.528,INVALID,360.0,VALID,0.0,
2019-08-07, 02:32:06,VALID,916.752,VALID,0.0,VALID,98.416,VALID,0.001,VALID,19.478,INVALID,360.0,VALID,0.0,
2019-08-07, 02:33:06,VALID,916.704,VALID,0.0,VALID,98.345,VALID,0.006,VALID,19.439,INVALID,360.0,VALID,0.0,
2019-08-07, 02:34:06,VALID,916.694,VALID,0.0,VALID,98.331,VALID,-0.002,VALID,19.436,INVALID,360.0,VALID,0.0,
2019-08-07, 02:35:06,VALID,916.677,VALID,0.0,VALID,98.319,VALID,0.011,VALID,19.432,INVALID,360.0,VALID,0.0,
2019-08-07, 02:36:06,VALID,916.672,VALID,0.0,VALID,98.326,VALID,-0.003,VALID,19.44,INVALID,360.0,VALID,0.0,
2019-08-07, 02:37:06,VALID,916.661,VALID,0.0,VALID,98.339,VALID,0.0,VALID,19.445,INVALID,360.0,VALID,0.0,
2019-08-07, 02:38:06,VALID,916.672,VALID,0.0,VALID,98.385,VALID,0.0,VALID,19.458,INVALID,360.0,VALID,0.0,
2019-08-07, 02:39:06,VALID,916.649,VALID,0.0,VALID,98.404,VALID,0.007,VALID,19.465,INVALID,360.0,VALID,0.0,
2019-08-07, 02:40:06,VALID,916.631,VALID,0.0,VALID,98.496,VALID,0.013,VALID,19.476,INVALID,360.0,VALID,0.0,
2019-08-07, 02:41:06,VALID,916.606,VALID,0.0,VALID,98.5,VALID,0.011,VALID,19.466,INVALID,360.0,VALID,0.0,
2019-08-07, 02:42:06,VALID,916.608,VALID,0.0,VALID,98.478,VALID,0.008,VALID,19.456,INVALID,360.0,VALID,0.0,
2019-08-07, 02:43:06,VALID,916.607,VALID,0.0,VALID,98.448,VALID,-0.001,VALID,19.461,INVALID,360.0,VALID,0.0,
2019-08-07, 02:44:06,VALID,916.59,VALID,0.0,VALID,98.374,VALID,0.017,VALID,19.441,INVALID,360.0,VALID,0.0,
2019-08-07, 02:45:06,VALID,916.612,VALID,0.0,VALID,98.367,VALID,0.02,VALID,19.442,INVALID,360.0,VALID,0.0,
2019-08-07, 02:46:06,VALID,916.599,VALID,0.0,VALID,98.354,VALID,-0.008,VALID,19.435,INVALID,360.0,VALID,0.0,
2019-08-07, 02:47:06,VALID,916.6,VALID,0.0,VALID,98.306,VALID,0.017,VALID,19.409,INVALID,360.0,VALID,0.0,
2019-08-07, 02:48:06,VALID,916.626,VALID,0.0,VALID,98.186,VALID,0.009,VALID,19.369,INVALID,360.0,VALID,0.0,
2019-08-07, 02:49:06,VALID,916.631,VALID,0.0,VALID,98.085,VALID,0.008,VALID,19.338,INVALID,360.0,VALID,0.0,
2019-08-07, 02:50:06,VALID,916.63,VALID,0.0,VALID,97.955,VALID,0.015,VALID,19.309,INVALID,360.0,VALID,0.0,
2019-08-07, 02:51:06,VALID,916.629,VALID,0.0,VALID,97.785,VALID,0.028,VALID,19.284,INVALID,360.0,VALID,0.0,
2019-08-07, 02:52:06,VALID,916.619,VALID,0.0,VALID,97.709,VALID,0.003,VALID,19.281,INVALID,360.0,VALID,0.0,
2019-08-07, 02:53:06,VALID,916.642,VALID,0.0,VALID,97.259,VALID,0.001,VALID,19.17,INVALID,360.0,VALID,0.0,
2019-08-07, 02:54:06,VALID,916.649,VALID,0.0,VALID,96.797,VALID,0.019,VALID,19.113,INVALID,360.0,VALID,0.0,
2019-08-07, 02:55:06,VALID,916.647,VALID,0.0,VALID,97.087,VALID,0.016,VALID,19.144,INVALID,360.0,VALID,0.0,
2019-08-07, 02:56:06,VALID,916.684,VALID,0.0,VALID,97.689,VALID,-0.009,VALID,19.241,INVALID,360.0,VALID,0.0,
2019-08-07, 02:57:06,VALID,916.682,VALID,0.0,VALID,98.189,VALID,-0.001,VALID,19.325,INVALID,360.0,VALID,0.0,
2019-08-07, 02:58:06,VALID,916.675,VALID,0.0,VALID,98.482,VALID,0.003,VALID,19.376,INVALID,360.0,VALID,0.0,
2019-08-07, 02:59:06,VALID,916.68,VALID,0.0,VALID,98.606,VALID,0.007,VALID,19.387,INVALID,360.0,VALID,0.0,
2019-08-07, 03:00:06,VALID,916.674,VALID,0.0,VALID,98.596,VALID,0.0,VALID,19.353,INVALID,360.0,VALID,0.0,
2019-08-07, 03:01:06,VALID,916.669,VALID,0.0,VALID,98.587,VALID,0.006,VALID,19.345,INVALID,360.0,VALID,0.0,
2019-08-07, 03:02:06,VALID,916.678,VALID,0.0,VALID,98.771,VALID,0.012,VALID,19.412,INVALID,360.0,VALID,0.0,
2019-08-07, 03:03:06,VALID,916.664,VALID,0.0,VALID,98.825,VALID,0.001,VALID,19.387,INVALID,360.0,VALID,0.0,
2019-08-07, 03:04:06,VALID,916.639,VALID,0.0,VALID,98.78,VALID,-0.007,VALID,19.366,INVALID,360.0,VALID,0.0,
2019-08-07, 03:05:06,VALID,916.632,VALID,0.0,VALID,98.919,VALID,-0.013,VALID,19.468,INVALID,360.0,VALID,0.0,
2019-08-07, 03:06:06,VALID,916.622,VALID,0.0,VALID,98.998,VALID,-0.02,VALID,19.477,INVALID,360.0,VALID,0.0,
2019-08-07, 03:07:06,VALID,916.622,VALID,0.0,VALID,98.857,VALID,-0.023,VALID,19.387,INVALID,360.0,VALID,0.0,
2019-08-07, 03:08:06,VALID,916.616,VALID,0.0,VALID,98.882,VALID,-0.002,VALID,19.382,INVALID,360.0,VALID,0.0,
2019-08-07, 03:09:06,VALID,916.611,VALID,0.0,VALID,98.897,VALID,-0.019,VALID,19.405,INVALID,360.0,VALID,0.0,
2019-08-07, 03:10:06,VALID,916.604,VALID,0.0,VALID,98.914,VALID,-0.008,VALID,19.431,INVALID,360.0,VALID,0.0,
2019-08-07, 03:11:06,VALID,916.604,VALID,0.0,VALID,98.943,VALID,-0.006,VALID,19.464,INVALID,360.0,VALID,0.0,
2019-08-07, 03:12:06,VALID,916.598,VALID,0.0,VALID,98.963,VALID,-0.01,VALID,19.494,INVALID,360.0,VALID,0.0,
2019-08-07, 03:13:06,VALID,916.607,VALID,0.0,VALID,98.976,VALID,-0.007,VALID,19.508,INVALID,360.0,VALID,0.0,
2019-08-07, 03:14:06,VALID,916.606,VALID,0.0,VALID,99.025,VALID,-0.013,VALID,19.547,INVALID,360.0,VALID,0.0,
2019-08-07, 03:15:06,VALID,916.605,VALID,0.0,VALID,99.072,VALID,-0.022,VALID,19.557,INVALID,360.0,VALID,0.0,
2019-08-07, 03:16:06,VALID,916.618,VALID,0.0,VALID,99.073,VALID,-0.023,VALID,19.557,INVALID,360.0,VALID,0.0,
2019-08-07, 03:17:06,VALID,916.619,VALID,0.0,VALID,99.118,VALID,-0.006,VALID,19.573,INVALID,360.0,VALID,0.0,
2019-08-07, 03:18:06,VALID,916.629,VALID,0.0,VALID,99.158,VALID,0.002,VALID,19.595,INVALID,360.0,VALID,0.0,
2019-08-07, 03:19:06,VALID,916.645,VALID,0.0,VALID,99.174,VALID,-0.007,VALID,19.609,INVALID,360.0,VALID,0.0,
2019-08-07, 03:20:06,VALID,916.648,VALID,0.0,VALID,99.205,VALID,-0.007,VALID,19.631,INVALID,360.0,VALID,0.0,
2019-08-07, 03:21:06,VALID,916.644,VALID,0.0,VALID,99.259,VALID,0.0,VALID,19.643,INVALID,360.0,VALID,0.0,
2019-08-07, 03:22:06,VALID,916.638,VALID,0.0,VALID,99.263,VALID,0.003,VALID,19.633,INVALID,360.0,VALID,0.0,
2019-08-07, 03:23:06,VALID,916.642,VALID,0.0,VALID,99.27,VALID,-0.024,VALID,19.651,INVALID,360.0,VALID,0.0,
2019-08-07, 03:24:06,VALID,916.653,VALID,0.0,VALID,99.312,VALID,-0.015,VALID,19.683,INVALID,360.0,VALID,0.0,
2019-08-07, 03:25:06,VALID,916.636,VALID,0.0,VALID,99.311,VALID,-0.0,VALID,19.696,INVALID,360.0,VALID,0.0,
2019-08-07, 03:26:06,VALID,916.639,VALID,0.0,VALID,99.322,VALID,-0.017,VALID,19.694,INVALID,360.0,VALID,0.0,
2019-08-07, 03:27:06,VALID,916.628,VALID,0.0,VALID,99.317,VALID,0.01,VALID,19.684,INVALID,360.0,VALID,0.0,
2019-08-07, 03:28:06,VALID,916.638,VALID,0.0,VALID,99.306,VALID,0.001,VALID,19.674,INVALID,360.0,VALID,0.0,
2019-08-07, 03:29:06,VALID,916.65,VALID,0.0,VALID,99.328,VALID,-0.0,VALID,19.661,INVALID,360.0,VALID,0.0,
2019-08-07, 03:30:06,VALID,916.646,VALID,0.0,VALID,99.32,VALID,0.001,VALID,19.643,INVALID,360.0,VALID,0.0,
2019-08-07, 03:31:06,VALID,916.655,VALID,0.0,VALID,99.32,VALID,-0.014,VALID,19.632,INVALID,360.0,VALID,0.0,
2019-08-07, 03:32:06,VALID,916.656,VALID,0.0,VALID,99.332,VALID,-0.014,VALID,19.635,INVALID,360.0,VALID,0.0,
2019-08-07, 03:33:06,VALID,916.651,VALID,0.0,VALID,99.345,VALID,-0.012,VALID,19.634,INVALID,360.0,VALID,0.0,
2019-08-07, 03:34:06,VALID,916.651,VALID,0.0,VALID,99.354,VALID,-0.041,VALID,19.628,INVALID,360.0,VALID,0.0,
2019-08-07, 03:35:06,VALID,916.65,VALID,0.0,VALID,99.342,VALID,-0.037,VALID,19.603,INVALID,360.0,VALID,0.0,
2019-08-07, 03:36:06,VALID,916.639,VALID,0.0,VALID,99.353,VALID,-0.037,VALID,19.606,INVALID,360.0,VALID,0.0,
2019-08-07, 03:37:06,VALID,916.633,VALID,0.0,VALID,99.36,VALID,-0.034,VALID,19.618,INVALID,360.0,VALID,0.0,
2019-08-07, 03:38:06,VALID,916.621,VALID,0.0,VALID,99.363,VALID,-0.034,VALID,19.625,INVALID,360.0,VALID,0.0,
2019-08-07, 03:39:06,VALID,916.601,VALID,0.0,VALID,99.384,VALID,-0.027,VALID,19.64,INVALID,360.0,VALID,0.0,
2019-08-07, 03:40:06,VALID,916.605,VALID,0.0,VALID,99.381,VALID,-0.038,VALID,19.653,INVALID,360.0,VALID,0.0,